Previsão horária em Plotowo

Hoje, 1 Março, Segunda-feira

Tempo Temperatura Precipitação Vento Pressão Humidade
00:00 +1°C° 0 mm 2 m/s 756 mmHg 97%
01:00 +1°C° 0 mm 2 m/s 756 mmHg 98%
02:00 +1°C° 0 mm 2 m/s 756 mmHg 98%
03:00 -1°C° 0 mm 2 m/s 756 mmHg 98%
04:00 -1°C° 0 mm 2 m/s 756 mmHg 97%
05:00 -1°C° 0 mm 2 m/s 756 mmHg 97%
06:00 -1°C° 0 mm 2 m/s 756 mmHg 97%
07:00 -1°C° 0 mm 2 m/s 756 mmHg 98%
08:00 +1°C° 0 mm 2 m/s 756 mmHg 93%
09:00 +3°C° 0 mm 2 m/s 756 mmHg 89%
10:00 +4°C° 0 mm 2 m/s 756 mmHg 84%
11:00 +5°C° 0 mm 2 m/s 756 mmHg 79%
12:00 +5°C° 0 mm 3 m/s 757 mmHg 74%
13:00 +7°C° 0 mm 3 m/s 757 mmHg 74%
14:00 +7°C° 0 mm 3 m/s 756 mmHg 74%
15:00 +7°C° 0 mm 3 m/s 756 mmHg 75%
16:00 +6°C° 0 mm 4 m/s 756 mmHg 75%
17:00 +5°C° 0 mm 4 m/s 756 mmHg 81%
18:00 +4°C° 0 mm 4 m/s 756 mmHg 86%
19:00 +2°C° 0 mm 3 m/s 756 mmHg 91%
20:00 +2°C° 0 mm 3 m/s 756 mmHg 91%
21:00 +2°C° 0 mm 3 m/s 755 mmHg 92%
22:00 +1°C° 0 mm 3 m/s 755 mmHg 92%
23:00 +1°C° 0 mm 3 m/s 755 mmHg 92%

Amanhã, 2 Março, Terça-feira

Tempo Temperatura Precipitação Vento Pressão Humidade
00:00 +1°C° 0 mm 3 m/s 755 mmHg 92%
01:00 +1°C° 0 mm 3 m/s 755 mmHg 92%
02:00 +1°C° 0 mm 3 m/s 755 mmHg 92%
03:00 -1°C° 0 mm 4 m/s 755 mmHg 92%
04:00 -1°C° 0 mm 4 m/s 754 mmHg 92%
05:00 -1°C° 0 mm 4 m/s 754 mmHg 92%
06:00 -1°C° 0 mm 4 m/s 754 mmHg 92%
07:00 -1°C° 0 mm 4 m/s 755 mmHg 92%
08:00 +1°C° 0 mm 4 m/s 755 mmHg 85%
09:00 +3°C° 0 mm 4 m/s 755 mmHg 79%
10:00 +3°C° 0 mm 5 m/s 755 mmHg 72%
11:00 +5°C° 0 mm 5 m/s 755 mmHg 69%
12:00 +6°C° 0 mm 5 m/s 755 mmHg 66%
13:00 +7°C° 0 mm 5 m/s 755 mmHg 64%
14:00 +6°C° 0 mm 4 m/s 755 mmHg 66%
15:00 +6°C° 0 mm 4 m/s 755 mmHg 69%
16:00 +5°C° 0 mm 3 m/s 755 mmHg 72%
17:00 +4°C° 0 mm 3 m/s 755 mmHg 79%
18:00 +4°C° 0 mm 2 m/s 755 mmHg 86%
19:00 +2°C° 0 mm 2 m/s 755 mmHg 92%
20:00 +3°C° 0 mm 1 m/s 755 mmHg 93%
21:00 +2°C° 0 mm 1 m/s 755 mmHg 94%
22:00 +1°C° 0 mm 0 m/s 755 mmHg 95%
23:00 +1°C° 0 mm 0 m/s 755 mmHg 95%

Depois de amanhã, 3 Março, Quarta-feira

Tempo Temperatura Precipitação Vento Pressão Humidade
00:00 +2°C° 0 mm 1 m/s 756 mmHg 94%
01:00 +1°C° 0 mm 1 m/s 756 mmHg 94%
02:00 +1°C° 0 mm 1 m/s 755 mmHg 94%
03:00 +1°C° 0 mm 1 m/s 754 mmHg 94%
04:00 +1°C° 0 mm 1 m/s 754 mmHg 95%
05:00 +1°C° 0 mm 1 m/s 754 mmHg 95%
06:00 -1°C° 0 mm 2 m/s 754 mmHg 95%
07:00 -1°C° 0 mm 2 m/s 754 mmHg 95%
08:00 +2°C° 0 mm 2 m/s 753 mmHg 89%
09:00 +3°C° 0 mm 2 m/s 753 mmHg 83%
10:00 +5°C° 0 mm 2 m/s 753 mmHg 77%
11:00 +6°C° 0 mm 2 m/s 752 mmHg 71%
12:00 +7°C° 0 mm 2 m/s 752 mmHg 64%
13:00 +8°C° 0 mm 2 m/s 752 mmHg 58%
14:00 +8°C° 0 mm 2 m/s 751 mmHg 58%
15:00 +9°C° 0 mm 2 m/s 750 mmHg 58%
16:00 +9°C° 0 mm 2 m/s 749 mmHg 58%
17:00 +7°C° 0 mm 2 m/s 748 mmHg 64%
18:00 +6°C° 0 mm 2 m/s 748 mmHg 71%
19:00 +5°C° 0 mm 2 m/s 747 mmHg 77%
20:00 +4°C° 0 mm 2 m/s 747 mmHg 81%
21:00 +3°C° 0 mm 3 m/s 746 mmHg 85%
22:00 +2°C° 0 mm 3 m/s 745 mmHg 89%
23:00 +2°C° 0 mm 3 m/s 744 mmHg 90%

4 Março, Quinta-feira

Tempo Temperatura Precipitação Vento Pressão Humidade
00:00 +2°C° 0 mm 3 m/s 744 mmHg 91%
01:00 +2°C° 0 mm 3 m/s 743 mmHg 92%
02:00 +2°C° 0 mm 3 m/s 743 mmHg 93%
03:00 +2°C° 0 mm 3 m/s 742 mmHg 94%
04:00 +2°C° 0 mm 3 m/s 741 mmHg 95%
05:00 +1°C° 0 mm 4 m/s 741 mmHg 95%
06:00 +1°C° 0 mm 4 m/s 741 mmHg 95%
07:00 +1°C° 0 mm 4 m/s 741 mmHg 95%
08:00 +1°C° 0 mm 4 m/s 741 mmHg 92%
09:00 +1°C° 0 mm 4 m/s 741 mmHg 89%
10:00 +1°C° 0 mm 4 m/s 741 mmHg 87%
11:00 +1°C° 0 mm 4 m/s 741 mmHg 85%
12:00 +2°C° 0 mm 3 m/s 741 mmHg 83%
13:00 +2°C° 0 mm 3 m/s 741 mmHg 81%
14:00 +2°C° 0 mm 3 m/s 741 mmHg 83%
15:00 +1°C° 0 mm 3 m/s 740 mmHg 85%
16:00 +2°C° 0 mm 2 m/s 740 mmHg 87%
17:00 0°C° 0.2 mm 3 m/s 740 mmHg 89%
18:00 -1°C° 0.2 mm 3 m/s 740 mmHg 91%
19:00 -2°C° 0.2 mm 4 m/s 740 mmHg 93%
20:00 -3°C° 0.2 mm 4 m/s 741 mmHg 91%
21:00 -3°C° 0.2 mm 4 m/s 741 mmHg 89%
22:00 -2°C° 0.2 mm 3 m/s 741 mmHg 88%
23:00 -2°C° 0 mm 3 m/s 741 mmHg 85%

5 Março, Sexta-feira

Tempo Temperatura Precipitação Vento Pressão Humidade
00:00 -4°C° 0 mm 3 m/s 741 mmHg 83%
01:00 -4°C° 0 mm 3 m/s 741 mmHg 81%
02:00 -4°C° 0 mm 3 m/s 741 mmHg 79%
03:00 -4°C° 0 mm 3 m/s 741 mmHg 78%
04:00 -4°C° 0 mm 3 m/s 742 mmHg 77%
05:00 -3°C° 0 mm 2 m/s 742 mmHg 76%
06:00 -3°C° 0 mm 2 m/s 742 mmHg 74%
07:00 -3°C° 0 mm 2 m/s 743 mmHg 73%
08:00 -2°C° 0.1 mm 2 m/s 743 mmHg 67%
09:00 -1°C° 0.1 mm 3 m/s 743 mmHg 60%
10:00 -1°C° 0.1 mm 4 m/s 744 mmHg 54%
11:00 -1°C° 0.2 mm 4 m/s 744 mmHg 53%
12:00 0°C° 0.2 mm 4 m/s 745 mmHg 52%
13:00 0°C° 0.2 mm 5 m/s 745 mmHg 51%
14:00 0°C° 0 mm 5 m/s 745 mmHg 52%
15:00 -1°C° 0 mm 4 m/s 745 mmHg 53%
16:00 -1°C° 0 mm 4 m/s 746 mmHg 54%
17:00 -1°C° 0 mm 3 m/s 746 mmHg 60%
18:00 -2°C° 0 mm 3 m/s 747 mmHg 66%
19:00 -3°C° 0 mm 2 m/s 747 mmHg 73%
20:00 -3°C° 0 mm 2 m/s 748 mmHg 75%
21:00 -4°C° 0 mm 2 m/s 748 mmHg 77%
22:00 -4°C° 0 mm 2 m/s 749 mmHg 79%
23:00 -4°C° 0.1 mm 2 m/s 749 mmHg 80%

6 Março, Sábado

Tempo Temperatura Precipitação Vento Pressão Humidade
00:00 -4°C° 0.1 mm 2 m/s 749 mmHg 81%
01:00 -4°C° 0.1 mm 2 m/s 750 mmHg 82%
02:00 -4°C° 0 mm 2 m/s 750 mmHg 79%
03:00 -4°C° 0 mm 2 m/s 750 mmHg 76%
04:00 -4°C° 0 mm 2 m/s 751 mmHg 73%
05:00 -4°C° 0 mm 2 m/s 751 mmHg 70%
06:00 -4°C° 0 mm 2 m/s 752 mmHg 67%
07:00 -4°C° 0 mm 2 m/s 752 mmHg 64%
08:00 -3°C° 0 mm 2 m/s 752 mmHg 57%
09:00 -2°C° 0 mm 3 m/s 753 mmHg 50%
10:00 -1°C° 0 mm 3 m/s 753 mmHg 43%
11:00 0°C° 0 mm 3 m/s 753 mmHg 42%
12:00 0°C° 0 mm 3 m/s 754 mmHg 42%
13:00 0°C° 0 mm 3 m/s 754 mmHg 41%
14:00 -1°C° 0 mm 4 m/s 754 mmHg 42%
15:00 -1°C° 0 mm 4 m/s 754 mmHg 44%
16:00 -1°C° 0 mm 4 m/s 754 mmHg 45%
17:00 -1°C° 0 mm 3 m/s 754 mmHg 52%
18:00 -2°C° 0 mm 3 m/s 753 mmHg 58%
19:00 -3°C° 0 mm 2 m/s 753 mmHg 65%
20:00 -4°C° 0 mm 3 m/s 753 mmHg 67%
21:00 -4°C° 0 mm 3 m/s 753 mmHg 70%
22:00 -4°C° 0 mm 3 m/s 753 mmHg 72%
23:00 -4°C° 0 mm 3 m/s 753 mmHg 69%
Mostrar mais

Necessitamos do seu Consentimento

A Meteoprog e os seus Fornecedores de Serviços podem armazenar e aceder a dados pessoais como cookies, identificadores do dispositivo ou outras tecnologias semelhantes existentes no seu dispositivo e processar estes dados para personalizar conteúdos e anúncios, assim como funcionalidades nas redes sociais e análise de tráfego.

  • Armazenar e/ou aceder a informações no seu dispositivo

    Os cookies, identificadores do dispositivo ou outras informações podem ser armazenados ou acedidos no seu dispositivo, para os fins acima indicados.

  • Anúncios e conteúdos personalizados, medição de anúncios e conteúdos, dados sobre o público-alvo e desenvolvimento de produtos

    Os anúncios e os conteúdos podem ser personalizados com base num perfil. Podem ser adicionados dados adicionais para uma maior personalização dos anúncios e dos conteúdos. A eficácia dos anúncios e dos conteúdos pode ser medida. Podem ser obtidas informações sobre o público que visualizou os anúncios e os conteúdos. Estes dados podem ser usados para desenvolver ou melhorar sistemas, softwares ou a experiência do utilizador.

Ao clicar em "Eu concordo”, permitirá o uso de cookies, identificadores do dispositivo e web beacons mencionados ou outras tecnologias semelhantes. As configurações do navegador do seu dispositivo podem ser alteradas.

Para certos fins, podem ser invocados interesses legítimos ao invés de consentimento. Pode ler mais informação sobre este assunto na nossa Política de Privacidade e Cookies.